******** Week 286 almanac for PRN-02 ******** ID: 02 Health: 000 Eccentricity: 0.1618289948E-001 Time of Applicability(s): 319488.0000 Orbital Inclination(rad): 0.9671772836 Rate of Right Ascen(r/s): -0.7680319916E-008 SQRT(A) (m 1/2): 5153.644043 Right Ascen at Week(rad): -0.3186002446E+000 Argument of Perigee(rad): -1.124354738 Mean Anom(rad): 0.2346752794E+001 Af0(s): -0.3452301025E-003 Af1(s/s): 0.7275957614E-011 week: 286 ******** Week 286 almanac for PRN-03 ******** ID: 03 Health: 000 Eccentricity: 0.5701541901E-002 Time of Applicability(s): 319488.0000 Orbital Inclination(rad): 0.9862262091 Rate of Right Ascen(r/s): -0.7668890869E-008 SQRT(A) (m 1/2): 5153.603516 Right Ascen at Week(rad): 0.8177967664E+000 Argument of Perigee(rad): 1.163275755 Mean Anom(rad): -0.1197270507E+001 Af0(s): 0.5578994751E-003 Af1(s/s): 0.1091393642E-010 week: 286 ******** Week 286 almanac for PRN-04 ******** ID: 04 Health: 000 Eccentricity: 0.3047943115E-002 Time of Applicability(s): 319488.0000 Orbital Inclination(rad): 0.9655174685 Rate of Right Ascen(r/s): -0.8114623721E-008 SQRT(A) (m 1/2): 5153.642578 Right Ascen at Week(rad): 0.1895557212E+001 Argument of Perigee(rad): -3.008205234 Mean Anom(rad): 0.1880190065E+001 Af0(s): 0.4549026489E-003 Af1(s/s): 0.7275957614E-011 week: 286 ******** Week 286 almanac for PRN-05 ******** ID: 05 Health: 000 Eccentricity: 0.5827426910E-002 Time of Applicability(s): 319488.0000 Orbital Inclination(rad): 0.9731693961 Rate of Right Ascen(r/s): -0.7806039439E-008 SQRT(A) (m 1/2): 5153.630371 Right Ascen at Week(rad): 0.7647905397E+000 Argument of Perigee(rad): 1.333474594 Mean Anom(rad): 0.2505176382E+001 Af0(s): -0.1888275146E-003 Af1(s/s): 0.0000000000E+000 week: 286 ******** Week 286 almanac for PRN-06 ******** ID: 06 Health: 000 Eccentricity: 0.3087520599E-002 Time of Applicability(s): 319488.0000 Orbital Inclination(rad): 0.9898394529 Rate of Right Ascen(r/s): -0.7451738966E-008 SQRT(A) (m 1/2): 5153.667969 Right Ascen at Week(rad): -0.2175035703E+000 Argument of Perigee(rad): -0.763585751 Mean Anom(rad): 0.2879195053E+000 Af0(s): -0.1049041748E-004 Af1(s/s): -0.2546585165E-010 week: 286 ******** Week 286 almanac for PRN-07 ******** ID: 07 Health: 000 Eccentricity: 0.1876401901E-001 Time of Applicability(s): 319488.0000 Orbital Inclination(rad): 0.9508068324 Rate of Right Ascen(r/s): -0.7794610391E-008 SQRT(A) (m 1/2): 5153.561523 Right Ascen at Week(rad): 0.2907650846E+001 Argument of Perigee(rad): -2.099265816 Mean Anom(rad): -0.6228699778E+000 Af0(s): -0.3147125244E-004 Af1(s/s): 0.3637978807E-011 week: 286 ******** Week 286 almanac for PRN-08 ******** ID: 08 Health: 000 Eccentricity: 0.9724140167E-002 Time of Applicability(s): 319488.0000 Orbital Inclination(rad): 0.9508427851 Rate of Right Ascen(r/s): -0.8388920861E-008 SQRT(A) (m 1/2): 5153.628906 Right Ascen at Week(rad): -0.1317695489E+001 Argument of Perigee(rad): 0.370175105 Mean Anom(rad): 0.2198758851E+001 Af0(s): 0.3719329834E-003 Af1(s/s): 0.1091393642E-010 week: 286 ******** Week 286 almanac for PRN-09 ******** ID: 09 Health: 000 Eccentricity: 0.3155231476E-002 Time of Applicability(s): 319488.0000 Orbital Inclination(rad): 0.9591897977 Rate of Right Ascen(r/s): -0.8194627053E-008 SQRT(A) (m 1/2): 5153.525391 Right Ascen at Week(rad): 0.1835019649E+001 Argument of Perigee(rad): 1.987699049 Mean Anom(rad): 0.2704478911E+001 Af0(s): 0.3814697266E-003 Af1(s/s): 0.1455191523E-010 week: 286 ******** Week 286 almanac for PRN-10 ******** ID: 10 Health: 000 Eccentricity: 0.9734630585E-002 Time of Applicability(s): 319488.0000 Orbital Inclination(rad): 0.9858666823 Rate of Right Ascen(r/s): -0.7680319916E-008 SQRT(A) (m 1/2): 5153.637695 Right Ascen at Week(rad): 0.8152516167E+000 Argument of Perigee(rad): -2.376782265 Mean Anom(rad): -0.2119664465E+001 Af0(s): -0.1449584961E-003 Af1(s/s): -0.1455191523E-010 week: 286 ******** Week 286 almanac for PRN-11 ******** ID: 11 Health: 000 Eccentricity: 0.1744270325E-002 Time of Applicability(s): 319488.0000 Orbital Inclination(rad): 0.9664582301 Rate of Right Ascen(r/s): -0.7657461821E-008 SQRT(A) (m 1/2): 5153.735352 Right Ascen at Week(rad): -0.1873096902E+000 Argument of Perigee(rad): -2.507726026 Mean Anom(rad): 0.1352207435E+001 Af0(s): -0.7410049438E-003 Af1(s/s): -0.3637978807E-011 week: 286 ******** Week 286 almanac for PRN-12 ******** ID: 12 Health: 000 Eccentricity: 0.8723735809E-002 Time of Applicability(s): 319488.0000 Orbital Inclination(rad): 0.9616585480 Rate of Right Ascen(r/s): -0.8023191341E-008 SQRT(A) (m 1/2): 5153.537109 Right Ascen at Week(rad): -0.2259955547E+001 Argument of Perigee(rad): 1.463076870 Mean Anom(rad): -0.1343990376E+001 Af0(s): -0.5426406860E-003 Af1(s/s): -0.3637978807E-011 week: 286 ******** Week 286 almanac for PRN-13 ******** ID: 13 Health: 000 Eccentricity: 0.8684635162E-002 Time of Applicability(s): 319488.0000 Orbital Inclination(rad): 0.9719470051 Rate of Right Ascen(r/s): -0.8023191341E-008 SQRT(A) (m 1/2): 5153.636719 Right Ascen at Week(rad): 0.2002932871E+001 Argument of Perigee(rad): 0.966477929 Mean Anom(rad): 0.1880674677E+001 Af0(s): 0.6799697876E-003 Af1(s/s): 0.3637978807E-011 week: 286 ******** Week 286 almanac for PRN-14 ******** ID: 14 Health: 000 Eccentricity: 0.4902839661E-002 Time of Applicability(s): 319488.0000 Orbital Inclination(rad): 0.9450304360 Rate of Right Ascen(r/s): -0.8148910863E-008 SQRT(A) (m 1/2): 5153.644043 Right Ascen at Week(rad): -0.2306432992E+001 Argument of Perigee(rad): -2.854639002 Mean Anom(rad): -0.1473596024E+001 Af0(s): 0.5083084106E-003 Af1(s/s): 0.7275957614E-011 week: 286 ******** Week 286 almanac for PRN-15 ******** ID: 15 Health: 000 Eccentricity: 0.1616573334E-001 Time of Applicability(s): 319488.0000 Orbital Inclination(rad): 0.9362220307 Rate of Right Ascen(r/s): -0.8446066098E-008 SQRT(A) (m 1/2): 5153.641113 Right Ascen at Week(rad): 0.1703776657E+001 Argument of Perigee(rad): 1.362356201 Mean Anom(rad): 0.1192569320E+001 Af0(s): 0.2107620239E-003 Af1(s/s): 0.3637978807E-011 week: 286 ******** Week 286 almanac for PRN-16 ******** ID: 16 Health: 000 Eccentricity: 0.1400613785E-001 Time of Applicability(s): 319488.0000 Orbital Inclination(rad): 0.9610533447 Rate of Right Ascen(r/s): -0.8046049436E-008 SQRT(A) (m 1/2): 5153.578125 Right Ascen at Week(rad): -0.2242240615E+001 Argument of Perigee(rad): 0.845633125 Mean Anom(rad): -0.3118772817E+001 Af0(s): -0.1649856567E-003 Af1(s/s): 0.1091393642E-010 week: 286 ******** Week 286 almanac for PRN-17 ******** ID: 17 Health: 000 Eccentricity: 0.1351785660E-001 Time of Applicability(s): 319488.0000 Orbital Inclination(rad): 0.9666619619 Rate of Right Ascen(r/s): -0.8148910863E-008 SQRT(A) (m 1/2): 5153.493652 Right Ascen at Week(rad): -0.1220913510E+001 Argument of Perigee(rad): -1.292514385 Mean Anom(rad): 0.2104173731E+001 Af0(s): 0.6084442139E-003 Af1(s/s): -0.1091393642E-010 week: 286 ******** Week 286 almanac for PRN-18 ******** ID: 18 Health: 000 Eccentricity: 0.4740715027E-002 Time of Applicability(s): 319488.0000 Orbital Inclination(rad): 0.9747033768 Rate of Right Ascen(r/s): -0.7600316584E-008 SQRT(A) (m 1/2): 5153.693359 Right Ascen at Week(rad): -0.2152542811E+000 Argument of Perigee(rad): -2.986304063 Mean Anom(rad): 0.2073188517E+000 Af0(s): -0.6561279297E-003 Af1(s/s): 0.0000000000E+000 week: 286 ******** Week 286 almanac for PRN-19 ******** ID: 19 Health: 000 Eccentricity: 0.9973526001E-002 Time of Applicability(s): 319488.0000 Orbital Inclination(rad): 0.9658829873 Rate of Right Ascen(r/s): -0.8160339911E-008 SQRT(A) (m 1/2): 5153.683594 Right Ascen at Week(rad): -0.1176646779E+001 Argument of Perigee(rad): 2.658187970 Mean Anom(rad): -0.2252011129E+001 Af0(s): 0.5455017090E-003 Af1(s/s): 0.3637978807E-011 week: 286 ******** Week 286 almanac for PRN-20 ******** ID: 20 Health: 000 Eccentricity: 0.3802776337E-002 Time of Applicability(s): 319488.0000 Orbital Inclination(rad): 0.9556125066 Rate of Right Ascen(r/s): -0.7931758961E-008 SQRT(A) (m 1/2): 5153.557617 Right Ascen at Week(rad): 0.6337673833E+000 Argument of Perigee(rad): -2.526850976 Mean Anom(rad): 0.6280917293E+000 Af0(s): 0.3700256348E-003 Af1(s/s): 0.0000000000E+000 week: 286 ******** Week 286 almanac for PRN-21 ******** ID: 21 Health: 000 Eccentricity: 0.2540302277E-001 Time of Applicability(s): 319488.0000 Orbital Inclination(rad): 0.9614188635 Rate of Right Ascen(r/s): -0.7691748964E-008 SQRT(A) (m 1/2): 5153.604492 Right Ascen at Week(rad): -0.3265491563E+000 Argument of Perigee(rad): -0.510945931 Mean Anom(rad): 0.1998244418E+001 Af0(s): 0.1001358032E-003 Af1(s/s): 0.0000000000E+000 week: 286 ******** Week 286 almanac for PRN-22 ******** ID: 22 Health: 000 Eccentricity: 0.1404476166E-001 Time of Applicability(s): 319488.0000 Orbital Inclination(rad): 0.9603942123 Rate of Right Ascen(r/s): -0.8011762293E-008 SQRT(A) (m 1/2): 5153.638184 Right Ascen at Week(rad): -0.2238949073E+001 Argument of Perigee(rad): -1.108205245 Mean Anom(rad): 0.2675562100E+001 Af0(s): -0.6771087646E-004 Af1(s/s): -0.3637978807E-011 week: 286 ******** Week 286 almanac for PRN-23 ******** ID: 23 Health: 000 Eccentricity: 0.4753589630E-002 Time of Applicability(s): 319488.0000 Orbital Inclination(rad): 0.9810190634 Rate of Right Ascen(r/s): -0.7691748964E-008 SQRT(A) (m 1/2): 5153.564453 Right Ascen at Week(rad): 0.7856490831E+000 Argument of Perigee(rad): -2.942162043 Mean Anom(rad): -0.9538139740E+000 Af0(s): 0.3328323364E-003 Af1(s/s): 0.7275957614E-011 week: 286 ******** Week 286 almanac for PRN-24 ******** ID: 24 Health: 000 Eccentricity: 0.1603651047E-001 Time of Applicability(s): 319488.0000 Orbital Inclination(rad): 0.9344843181 Rate of Right Ascen(r/s): -0.7954617056E-008 SQRT(A) (m 1/2): 5153.648438 Right Ascen at Week(rad): 0.2808425209E+001 Argument of Perigee(rad): 1.013744087 Mean Anom(rad): 0.3050917761E+000 Af0(s): -0.4854202271E-003 Af1(s/s): 0.0000000000E+000 week: 286 ******** Week 286 almanac for PRN-25 ******** ID: 25 Health: 000 Eccentricity: 0.1183032990E-001 Time of Applicability(s): 319488.0000 Orbital Inclination(rad): 0.9497701969 Rate of Right Ascen(r/s): -0.8068907531E-008 SQRT(A) (m 1/2): 5153.676270 Right Ascen at Week(rad): -0.2347983798E+001 Argument of Perigee(rad): 1.093153808 Mean Anom(rad): -0.1488285313E+001 Af0(s): 0.4997253418E-003 Af1(s/s): 0.0000000000E+000 week: 286 ******** Week 286 almanac for PRN-26 ******** ID: 26 Health: 000 Eccentricity: 0.9294986725E-002 Time of Applicability(s): 319488.0000 Orbital Inclination(rad): 0.9305954371 Rate of Right Ascen(r/s): -0.8240343243E-008 SQRT(A) (m 1/2): 5153.652344 Right Ascen at Week(rad): -0.2412876503E+001 Argument of Perigee(rad): 0.558411326 Mean Anom(rad): -0.2231919576E+001 Af0(s): 0.6580352783E-004 Af1(s/s): -0.7275957614E-011 week: 286 ******** Week 286 almanac for PRN-27 ******** ID: 27 Health: 000 Eccentricity: 0.1266002655E-001 Time of Applicability(s): 319488.0000 Orbital Inclination(rad): 0.9598848828 Rate of Right Ascen(r/s): -0.8297488481E-008 SQRT(A) (m 1/2): 5153.624023 Right Ascen at Week(rad): -0.1290103684E+001 Argument of Perigee(rad): 0.798285699 Mean Anom(rad): 0.2249396695E+001 Af0(s): -0.3433227539E-004 Af1(s/s): 0.0000000000E+000 week: 286 ******** Week 286 almanac for PRN-28 ******** ID: 28 Health: 000 Eccentricity: 0.4167556763E-003 Time of Applicability(s): 319488.0000 Orbital Inclination(rad): 0.9618622799 Rate of Right Ascen(r/s): -0.7714607059E-008 SQRT(A) (m 1/2): 5153.686523 Right Ascen at Week(rad): 0.2876051441E+001 Argument of Perigee(rad): 1.389549905 Mean Anom(rad): -0.1756152214E+001 Af0(s): -0.4320144653E-003 Af1(s/s): -0.1455191523E-010 week: 286 ******** Week 286 almanac for PRN-29 ******** ID: 29 Health: 000 Eccentricity: 0.2902984619E-002 Time of Applicability(s): 319488.0000 Orbital Inclination(rad): 0.9691426965 Rate of Right Ascen(r/s): -0.8137481816E-008 SQRT(A) (m 1/2): 5153.707520 Right Ascen at Week(rad): -0.1205575949E+001 Argument of Perigee(rad): 2.679282827 Mean Anom(rad): 0.2100931623E+001 Af0(s): -0.5741119385E-003 Af1(s/s): 0.3637978807E-011 week: 286 ******** Week 286 almanac for PRN-30 ******** ID: 30 Health: 000 Eccentricity: 0.7172584534E-002 Time of Applicability(s): 319488.0000 Orbital Inclination(rad): 0.9359583777 Rate of Right Ascen(r/s): -0.7954617056E-008 SQRT(A) (m 1/2): 5153.526855 Right Ascen at Week(rad): 0.2906345689E+001 Argument of Perigee(rad): -2.448464034 Mean Anom(rad): -0.7530841990E+000 Af0(s): -0.3099441528E-003 Af1(s/s): 0.7275957614E-011 week: 286 ******** Week 286 almanac for PRN-31 ******** ID: 31 Health: 000 Eccentricity: 0.1063489914E-001 Time of Applicability(s): 319488.0000 Orbital Inclination(rad): 0.9547556345 Rate of Right Ascen(r/s): -0.7726036106E-008 SQRT(A) (m 1/2): 5153.535156 Right Ascen at Week(rad): 0.2929699199E+001 Argument of Perigee(rad): 0.743084112 Mean Anom(rad): -0.1671148107E+001 Af0(s): -0.2241134644E-003 Af1(s/s): 0.0000000000E+000 week: 286 ******** Week 286 almanac for PRN-32 ******** ID: 32 Health: 000 Eccentricity: 0.7884025574E-002 Time of Applicability(s): 319488.0000 Orbital Inclination(rad): 0.9625393886 Rate of Right Ascen(r/s): -0.8160339911E-008 SQRT(A) (m 1/2): 5153.672363 Right Ascen at Week(rad): 0.1850149733E+001 Argument of Perigee(rad): -2.135234594 Mean Anom(rad): 0.2893552155E+001 Af0(s): -0.5912780762E-003 Af1(s/s): 0.3637978807E-011 week: 286